Regional Weather Roundup
Issued by NWS

Home | Current Version | Previous Version | Graphics & Text | Print | Product List | Glossary Off
Versions: 1 2 3 4 5 6 7 8 9 10 11 12 13 14 15 16 17 18 19 20 21 22 23 24 25 26 27 28 29 30 31 32 33 34 35 36 37 38 39 40 41 42 43 44 45 46 47 48 49 50

000
ASUS43 KFSD 300502
RWRSD

WEATHER ROUNDUP FOR SOUTH DAKOTA
NATIONAL WEATHER SERVICE SIOUX FALLS SD
1200 AM CDT SAT AUG 30 2014

NOTE: "FAIR" INDICATES FEW OR NO CLOUDS BELOW 12,000 FEET WITH NO
SIGNIFICANT WEATHER AND/OR OBSTRUCTIONS TO VISIBILITY.


SDZ001>005-009-010-012>017-300600-
NORTHWEST AND NORTH CENTRAL SOUTH DAKOTA

CITY           SKY/WX    TMP DP  RH WIND       PRES   REMARKS
BUFFALO          N/A     56  51  84 E7        29.95R
FAITH            N/A     56  53  90 NE7       30.00S
MOBRIDGE       CLEAR     54  54 100 N5        29.96R
$$

SDZ012>016-024>037-041>051-057-063-072>074-300600-
SOUTHWEST AND SOUTH CENTRAL SOUTH DAKOTA

CITY           SKY/WX    TMP DP  RH WIND       PRES   REMARKS
RAPID CTY ARPT PTCLDY    60  53  77 CALM      30.04R
PIERRE         CLEAR     58  57  97 N9        29.95R
CUSTER         CLEAR     53  49  86 CALM      30.14S
ELLSWORTH AFB  CLEAR     61  53  75 CALM      30.04R
PHILIP         CLEAR     58  55  90 CALM      30.00R
PINE RIDGE     CLEAR     53  52  96 E5        30.04R
WINNER         FAIR      60  56  86 W7        29.96S
$$

SDZ004>011-016>023-039-040-300600-
NORTHEAST SOUTH DAKOTA

CITY           SKY/WX    TMP DP  RH WIND       PRES   REMARKS
ABERDEEN       CLOUDY    60  57  89 N15       29.91S
WATERTOWN      CLOUDY    64  62  93 N14       29.87R
SISSETON         N/A     63  60  90 N14       29.86R
$$

SDZ017-020-022-023-036>040-048>070-300600-
SOUTHEAST SOUTH DAKOTA

CITY           SKY/WX    TMP DP  RH WIND       PRES   REMARKS
SIOUX FALLS    MOCLDY    65  63  93 CALM      29.84R
HURON          MOCLDY    63  59  87 N12       29.89R
CHAMBERLAIN    CLEAR     63  60  89 N5        29.94R
MITCHELL       MOCLDY    66  63  90 N12       29.89R
YANKTON        CLOUDY    66  63  88 MISG      29.86R
$$

ABBREVIATIONS USED IN REMARKS
   TC - TEMPERATURE IN CELSIUS
  WCI - WIND CHILL INDEX
   HX - HEAT INDEX
  VSB - VISIBILITY



USA.gov is the U.S. government's official web portal to all federal, state and local government web resources and services.